Regional Weather Roundup
Issued by NWS Cleveland, OH

Home | Current Version | Previous Version | Graphics & Text | Print | Product List | Glossary On
Versions: 1 2 3 4 5 6 7 8 9 10 11 12 13 14 15 16 17 18 19 20 21 22 23 24 25 26 27 28 29 30 31 32 33 34 35 36 37 38 39 40 41 42 43 44 45 46 47 48 49 50
000
ASUS41 KCLE 142002
RWRCLE
OHIO REGIONAL WEATHER ROUNDUP
NATIONAL WEATHER SERVICE CLEVELAND, OH
300 PM EST THU DEC 14 2017

NOTE: "FAIR" INDICATES FEW OR NO CLOUDS BELOW 12,000 FEET WITH NO
SIGNIFICANT WEATHER AND/OR OBSTRUCTIONS TO VISIBILITY.

OHZ001>008-015>018-024>027-034-035-043-044-142100-
   NORTHWEST OHIO

CITY           SKY/WX    TMP DP  RH WIND       PRES   REMARKS
DEFIANCE       CLOUDY    19   6  57 SW3       30.04S
FINDLAY        MOSUNNY   19   9  65 W8        30.04R WCI   9
TOLEDO EXPRESS CLOUDY    21   8  57 W6        30.03S WCI  13
TOLEDO EXEC    SUNNY     21   7  54 NW10      30.04R WCI  10
LIMA           CLOUDY    21  15  78 W7        30.02S WCI  12
$$

OHZ009>014-019>023-028>033-038-089-142100-
   NORTHEAST OHIO

CITY           SKY/WX    TMP DP  RH WIND       PRES   REMARKS
CLE-HOPKINS    PTSUNNY   25  15  66 W10       30.02R WCI  15
CLE-LAKEFRONT  PTSUNNY   25  15  66 W12       30.00R WCI  14
CUY CO. ARPT   PTSUNNY   25  19  80 W12       29.98S WCI  14
LORAIN-ELYRIA  PTSUNNY   23  12  62 NW9       30.02R WCI  13
ASHTABULA      CLOUDY    23  12  62 W10       29.98S WCI  12
AKRON-CANTON   FLURRIES  24  14  65 NW6       29.96R WCI  17
WOOSTER        SUNNY     22  14  71 W8        29.99R WCI  12
MANSFIELD      SUNNY     22  14  71 W3        29.98S
YOUNGSTOWN     FLURRIES  23  11  60 NW9       29.95R WCI  13
$$

OHZ042-051>053-060>062-070>072-077>081-142100-
  SOUTHWEST OHIO

CITY           SKY/WX    TMP DP  RH WIND       PRES   REMARKS
CINC-COVINGTON PTSUNNY   28  17  63 N10       30.03R WCI  19
CINC-LUNKEN    CLOUDY    29  17  61 NW7       30.07S WCI  22
HAMILTON       CLOUDY    27  16  63 NW7       30.06F WCI  19
DAYTON         PTSUNNY   23  16  74 NW3       30.03S
WRIGHT-PAT AFB PTSUNNY   24  14  67 CALM      30.03S
DAYTON GENERAL CLOUDY    24  15  68 N3        30.02S
WILMINGTON     CLOUDY    23  16  74 NW3       30.02S
$$

OHZ036-037-039>041-045>050-054>059-063>069-073>076-082>088-142100-
  CENTRAL AND SOUTHEAST OHIO

CITY           SKY/WX    TMP DP  RH WIND       PRES   REMARKS
COLUMBUS       CLOUDY    26  17  68 N7        30.02S WCI  18
OSU AIRPORT    CLOUDY    25  18  74 NW6       30.02S WCI  18
BOLTON FIELD   CLOUDY    27  16  63 CALM      30.02S
RICKENBACK AFB PTSUNNY   25  14  62 CALM      30.03R
NEWARK         PTSUNNY   27  16  63 NW8       30.00S WCI  19
MARION         NOT AVBL
LANCASTER      PTSUNNY   26  15  63 N5        30.02R WCI  20
ZANESVILLE     CLOUDY    28  13  53 VRB3      30.00R
NEW PHILLY     NOT AVBL
$$




USA.gov is the U.S. government's official web portal to all federal, state and local government web resources and services.